TimeAKDT,TemperatureF,Dew PointF,Humidity,Sea Level PressureIn,VisibilityMPH,Wind Direction,Wind SpeedMPH,Gust SpeedMPH,PrecipitationIn,Events,Conditions,WindDirDegrees,DateUTC
12:53 AM,19.9,1.9,46,30.28,10.0,NNE,11.5,-,N/A,,Partly Cloudy,30,2012-11-01 08:53:00
1:53 AM,17.1,1.0,50,30.30,10.0,NNE,5.8,-,N/A,,Partly Cloudy,20,2012-11-01 09:53:00
2:53 AM,15.1,-0.0,51,30.30,10.0,North,5.8,-,N/A,,Clear,10,2012-11-01 10:53:00
3:53 AM,12.0,-0.9,56,30.31,10.0,Calm,Calm,-,N/A,,Clear,0,2012-11-01 11:53:00
4:53 AM,12.9,-0.9,54,30.31,10.0,NNE,8.1,-,N/A,,Clear,20,2012-11-01 12:53:00
5:53 AM,12.0,-2.0,53,30.31,10.0,NNE,9.2,-,N/A,,Clear,30,2012-11-01 13:53:00
6:53 AM,12.9,-0.0,56,30.31,10.0,NNE,10.4,-,N/A,,Clear,20,2012-11-01 14:53:00
7:53 AM,10.9,-2.0,56,30.31,10.0,NNE,8.1,-,N/A,,Clear,20,2012-11-01 15:53:00
8:53 AM,10.0,-2.0,58,30.32,10.0,North,5.8,-,N/A,,Partly Cloudy,10,2012-11-01 16:53:00
9:53 AM,10.9,-2.0,56,30.33,10.0,North,6.9,-,N/A,,Partly Cloudy,10,2012-11-01 17:53:00
10:53 AM,9.0,-2.9,59,30.32,10.0,North,9.2,-,N/A,,Partly Cloudy,10,2012-11-01 18:53:00
11:53 AM,10.9,-2.0,56,30.33,10.0,NNE,11.5,-,N/A,,Partly Cloudy,20,2012-11-01 19:53:00
12:53 PM,12.9,-2.0,51,30.33,10.0,NNW,4.6,-,N/A,,Partly Cloudy,340,2012-11-01 20:53:00
1:53 PM,12.9,-0.9,54,30.32,10.0,North,8.1,-,N/A,,Partly Cloudy,360,2012-11-01 21:53:00
2:53 PM,15.1,-0.9,49,30.30,10.0,North,4.6,-,N/A,,Partly Cloudy,360,2012-11-01 22:53:00
3:53 PM,14.0,-0.9,52,30.29,10.0,North,8.1,-,N/A,,Partly Cloudy,10,2012-11-01 23:53:00
4:53 PM,12.0,-2.0,53,30.28,10.0,North,4.6,-,N/A,,Partly Cloudy,350,2012-11-02 00:53:00
5:53 PM,9.0,-2.9,59,30.27,10.0,North,3.5,-,N/A,,Partly Cloudy,350,2012-11-02 01:53:00
6:53 PM,6.1,-2.9,67,30.26,10.0,NW,5.8,-,N/A,,Clear,320,2012-11-02 02:53:00
7:53 PM,3.9,-4.0,70,30.26,10.0,Calm,Calm,-,N/A,,Clear,0,2012-11-02 03:53:00
8:53 PM,1.9,-5.1,72,30.25,10.0,NNW,4.6,-,N/A,,Clear,330,2012-11-02 04:53:00
9:53 PM,1.0,-5.1,75,30.24,10.0,NNW,4.6,-,N/A,,Clear,340,2012-11-02 05:53:00
10:53 PM,-0.9,-6.0,79,30.22,10.0,North,4.6,-,N/A,,Clear,350,2012-11-02 06:53:00
11:53 PM,-0.9,-6.0,79,30.22,10.0,NNW,6.9,-,N/A,,Clear,340,2012-11-02 07:53:00